Hourly Weather Snegurovka

Today, 16 January, Saturday

Time Temperature Precipitation Wind Pressure Humidity
00:00 -19°C° 0.3 mm 5 mps 751 mmHg 93%
01:00 -20°C° 0.1 mm 5 mps 751 mmHg 94%
02:00 -19°C° 0.1 mm 4 mps 752 mmHg 94%
03:00 -20°C° 0 mm 4 mps 753 mmHg 94%
04:00 -21°C° 0 mm 3 mps 753 mmHg 95%
05:00 -22°C° 0 mm 3 mps 754 mmHg 96%
06:00 -21°C° 0 mm 2 mps 754 mmHg 96%
07:00 -23°C° 0 mm 2 mps 754 mmHg 96%
08:00 -20°C° 0 mm 1 mps 755 mmHg 96%
09:00 -20°C° 0 mm 1 mps 755 mmHg 97%
10:00 -19°C° 0 mm 1 mps 755 mmHg 93%
11:00 -20°C° 0 mm 2 mps 755 mmHg 90%
12:00 -21°C° 0 mm 3 mps 756 mmHg 86%
13:00 -21°C° 0 mm 3 mps 755 mmHg 86%
14:00 -19°C° 0 mm 2 mps 755 mmHg 85%
15:00 -19°C° 0 mm 2 mps 755 mmHg 84%
16:00 -20°C° 0 mm 2 mps 756 mmHg 88%
17:00 -20°C° 0 mm 1 mps 756 mmHg 91%
18:00 -22°C° 0 mm 0 mps 757 mmHg 94%
19:00 -22°C° 0 mm 0 mps 757 mmHg 95%
20:00 -23°C° 0 mm 0 mps 757 mmHg 96%
21:00 -23°C° 0 mm 0 mps 757 mmHg 97%
22:00 -23°C° 0 mm 0 mps 757 mmHg 98%
23:00 -23°C° 0 mm 0 mps 757 mmHg 98%

Tomorrow, 17 January, Sunday

Time Temperature Precipitation Wind Pressure Humidity
00:00 -24°C° 0 mm 0 mps 757 mmHg 98%
01:00 -24°C° 0 mm 0 mps 757 mmHg 98%
02:00 -24°C° 0 mm 0 mps 756 mmHg 97%
03:00 -24°C° 0 mm 0 mps 756 mmHg 97%
04:00 -25°C° 0 mm 1 mps 756 mmHg 96%
05:00 -25°C° 0 mm 1 mps 756 mmHg 96%
06:00 -25°C° 0 mm 1 mps 756 mmHg 95%
07:00 -24°C° 0 mm 1 mps 756 mmHg 94%
08:00 -23°C° 0 mm 1 mps 755 mmHg 92%
09:00 -22°C° 0 mm 1 mps 755 mmHg 91%
10:00 -20°C° 0 mm 1 mps 755 mmHg 87%
11:00 -18°C° 0 mm 1 mps 754 mmHg 82%
12:00 -16°C° 0 mm 1 mps 754 mmHg 78%
13:00 -16°C° 0 mm 1 mps 753 mmHg 78%
14:00 -15°C° 0 mm 1 mps 753 mmHg 78%
15:00 -15°C° 0 mm 1 mps 752 mmHg 78%
16:00 -16°C° 0 mm 1 mps 752 mmHg 80%
17:00 -18°C° 0 mm 1 mps 753 mmHg 83%
18:00 -19°C° 0 mm 1 mps 753 mmHg 85%
19:00 -19°C° 0 mm 1 mps 753 mmHg 85%
20:00 -19°C° 0 mm 1 mps 753 mmHg 85%
21:00 -19°C° 0 mm 1 mps 753 mmHg 85%
22:00 -20°C° 0 mm 1 mps 752 mmHg 86%
23:00 -20°C° 0 mm 1 mps 752 mmHg 86%

Day after tomorrow, 18 January, Monday

Time Temperature Precipitation Wind Pressure Humidity
00:00 -23°C° 0 mm 2 mps 752 mmHg 86%
01:00 -21°C° 0 mm 2 mps 751 mmHg 86%
02:00 -21°C° 0 mm 2 mps 751 mmHg 86%
03:00 -20°C° 0 mm 2 mps 750 mmHg 86%
04:00 -18°C° 0 mm 1 mps 750 mmHg 86%
05:00 -18°C° 0 mm 1 mps 749 mmHg 85%
06:00 -18°C° 0 mm 1 mps 749 mmHg 85%
07:00 -18°C° 0 mm 1 mps 749 mmHg 86%
08:00 -17°C° 0 mm 1 mps 749 mmHg 86%
09:00 -17°C° 0 mm 1 mps 749 mmHg 87%
10:00 -17°C° 0 mm 2 mps 748 mmHg 81%
11:00 -17°C° 0 mm 3 mps 748 mmHg 75%
12:00 -16°C° 0 mm 4 mps 748 mmHg 69%
13:00 -16°C° 0 mm 4 mps 748 mmHg 72%
14:00 -18°C° 0 mm 5 mps 747 mmHg 74%
15:00 -18°C° 0 mm 5 mps 747 mmHg 77%
16:00 -20°C° 0.1 mm 5 mps 748 mmHg 81%
17:00 -20°C° 0.1 mm 4 mps 749 mmHg 85%
18:00 -23°C° 0.1 mm 4 mps 750 mmHg 88%
19:00 -24°C° 0.1 mm 4 mps 751 mmHg 89%
20:00 -24°C° 0.1 mm 4 mps 752 mmHg 89%
21:00 -26°C° 0.1 mm 5 mps 752 mmHg 89%
22:00 -26°C° 0 mm 4 mps 753 mmHg 90%
23:00 -27°C° 0 mm 4 mps 754 mmHg 91%

19 January, Tuesday

Time Temperature Precipitation Wind Pressure Humidity
00:00 -29°C° 0 mm 4 mps 755 mmHg 91%
01:00 -27°C° 0 mm 3 mps 756 mmHg 91%
02:00 -29°C° 0 mm 3 mps 756 mmHg 91%
03:00 -28°C° 0 mm 2 mps 757 mmHg 91%
04:00 -29°C° 0 mm 2 mps 758 mmHg 90%
05:00 -30°C° 0 mm 2 mps 759 mmHg 89%
06:00 -29°C° 0 mm 1 mps 760 mmHg 89%
07:00 -29°C° 0 mm 1 mps 760 mmHg 87%
08:00 -28°C° 0 mm 1 mps 761 mmHg 86%
09:00 -28°C° 0 mm 1 mps 762 mmHg 85%
10:00 -25°C° 0 mm 1 mps 762 mmHg 81%
11:00 -24°C° 0 mm 1 mps 763 mmHg 76%
12:00 -22°C° 0 mm 1 mps 763 mmHg 72%
13:00 -22°C° 0 mm 1 mps 763 mmHg 72%
14:00 -21°C° 0 mm 1 mps 762 mmHg 71%
15:00 -21°C° 0 mm 1 mps 762 mmHg 71%
16:00 -22°C° 0 mm 1 mps 763 mmHg 74%
17:00 -24°C° 0 mm 1 mps 763 mmHg 78%
18:00 -25°C° 0 mm 1 mps 763 mmHg 81%
19:00 -25°C° 0 mm 1 mps 763 mmHg 81%
20:00 -25°C° 0 mm 1 mps 764 mmHg 80%
21:00 -27°C° 0 mm 1 mps 764 mmHg 80%
22:00 -25°C° 0 mm 1 mps 763 mmHg 79%
23:00 -25°C° 0 mm 1 mps 763 mmHg 78%

20 January, Wednesday

Time Temperature Precipitation Wind Pressure Humidity
00:00 -25°C° 0 mm 1 mps 763 mmHg 78%
01:00 -25°C° 0 mm 1 mps 763 mmHg 77%
02:00 -25°C° 0 mm 1 mps 762 mmHg 76%
03:00 -24°C° 0 mm 1 mps 762 mmHg 76%
04:00 -24°C° 0 mm 1 mps 762 mmHg 76%
05:00 -23°C° 0 mm 1 mps 762 mmHg 76%
06:00 -23°C° 0 mm 1 mps 761 mmHg 76%
07:00 -21°C° 0 mm 1 mps 761 mmHg 78%
08:00 -20°C° 0 mm 1 mps 761 mmHg 80%
09:00 -18°C° 0 mm 1 mps 761 mmHg 83%
10:00 -17°C° 0 mm 2 mps 761 mmHg 82%
11:00 -14°C° 0 mm 2 mps 760 mmHg 81%
12:00 -10°C° 0 mm 2 mps 759 mmHg 81%
13:00 -9°C° 0 mm 2 mps 758 mmHg 81%
14:00 -10°C° 0 mm 3 mps 757 mmHg 81%
15:00 -9°C° 0 mm 3 mps 757 mmHg 81%
16:00 -9°C° 0 mm 2 mps 757 mmHg 83%
17:00 -10°C° 0 mm 2 mps 756 mmHg 85%
18:00 -13°C° 0 mm 2 mps 756 mmHg 88%
19:00 -13°C° 0 mm 2 mps 756 mmHg 89%
20:00 -12°C° 0 mm 2 mps 756 mmHg 90%
21:00 -12°C° 0 mm 2 mps 756 mmHg 92%
22:00 -12°C° 0 mm 2 mps 756 mmHg 92%
23:00 -11°C° 0 mm 1 mps 756 mmHg 93%

21 January, Thursday

Time Temperature Precipitation Wind Pressure Humidity
00:00 -11°C° 0 mm 1 mps 756 mmHg 94%
01:00 -12°C° 0 mm 1 mps 756 mmHg 95%
02:00 -13°C° 0 mm 1 mps 756 mmHg 95%
03:00 -14°C° 0 mm 1 mps 757 mmHg 96%
04:00 -15°C° 0 mm 1 mps 757 mmHg 96%
05:00 -15°C° 0 mm 1 mps 758 mmHg 96%
06:00 -16°C° 0 mm 1 mps 758 mmHg 96%
07:00 -16°C° 0 mm 1 mps 759 mmHg 96%
08:00 -16°C° 0 mm 0 mps 759 mmHg 95%
09:00 -16°C° 0 mm 0 mps 760 mmHg 95%
10:00 -14°C° 0 mm 0 mps 760 mmHg 90%
11:00 -13°C° 0 mm 0 mps 760 mmHg 84%
12:00 -11°C° 0 mm 1 mps 760 mmHg 79%
13:00 -11°C° 0 mm 1 mps 759 mmHg 79%
14:00 -10°C° 0 mm 0 mps 759 mmHg 79%
15:00 -10°C° 0 mm 0 mps 759 mmHg 79%
16:00 -12°C° 0 mm 0 mps 759 mmHg 82%
17:00 -13°C° 0 mm 0 mps 759 mmHg 85%
18:00 -15°C° 0 mm 0 mps 760 mmHg 88%
19:00 -15°C° 0 mm 0 mps 760 mmHg 86%
20:00 -15°C° 0 mm 1 mps 760 mmHg 84%
21:00 -16°C° 0 mm 1 mps 760 mmHg 82%
22:00 -16°C° 0 mm 1 mps 760 mmHg 81%
23:00 -16°C° 0 mm 1 mps 760 mmHg 80%
Show more